Wetbulb
62.37 62.93 63.61 63.80 64.36 63.10 63.26 62.47 60.51 57.89 59.64 61.46 62.51 61.31 60.59 59.60 59.36 58.33 58.21 59.09 59.53 58.48 58.18 59.63 60.66 61.05 61.52 61.79 61.63 61.10 59.86 59.18 57.75 59.70 62.34 58.97 57.49 57.54 55.82 52.98 54.58 51.86 50.84
60.43 62.17 62.41 63.26 64.06 62.80 61.87 61.97 61.10 59.50 58.43 58.21 58.85 58.91 58.99 58.57 57.61 57.59 57.55 59.67 58.67 57.65 56.73 57.11 58.26 61.77 59.85 60.58 60.89 60.67 60.03 59.13 58.19 58.73 59.78 57.47 56.52 57.04 53.64 51.84 52.44 52.98 50.14
58.04 58.87 58.91 59.87 60.13 61.65 61.41 61.48 61.28 60.05 59.09 58.95 58.71 58.03 58.23 58.04 56.88 56.76 57.30 56.75 55.67 55.08 55.18 55.09 55.19 56.27 57.31 58.40 59.08 60.00 60.32 60.26 58.95 57.75 60.67 59.13 56.52 53.66 51.11 51.20 50.68 50.42 51.05
56.17 54.57 54.60 55.39 59.31 60.67 60.75 59.94 61.00 60.94 60.06 59.46 59.03 58.93 58.55 57.87 56.97 56.12 55.81 54.98 54.46 54.58 54.50 54.72 55.34 55.67 55.96 56.54 58.60 58.79 59.85 59.04 57.99 57.29 59.08 58.86 56.14 52.88 51.92 49.24 48.04 49.42 49.33
54.96 53.69 54.32 54.73 55.53 59.82 60.45 60.83 60.58 59.95 60.33 59.97 59.25 58.69 58.25 57.57 57.72 55.94 55.36 54.48 53.61 53.42 54.82 55.10 54.96 57.59 59.32 57.39 56.80 55.82 57.63 57.86 57.02 56.50 59.30 57.29 54.41 51.02 50.20 50.33 48.31 48.50 49.51
54.39 54.33 54.63 54.71 54.88 54.54 55.56 58.72 59.71 59.40 59.19 58.74 57.89 58.01 57.15 58.36 53.20 52.74 55.02 54.65 54.66 53.98 53.27 53.89 55.18 56.17 55.20 54.51 54.96 55.76 55.67 56.90 56.38 56.84 59.86 58.03 55.64 53.76 52.86 50.44 48.68 46.96 45.26
54.74 54.51 54.67 54.95 54.98 53.44 54.15 54.70 56.42 57.45 58.10 59.45 59.03 59.51 58.71 57.01 51.23 50.40 51.79 54.59 54.32 54.01 53.83 53.90 54.14 56.24 55.07 54.54 53.69 54.34 55.25 53.98 56.16 58.00 58.01 59.06 57.73 55.79 53.82 51.45 49.60 48.89 48.43
54.29 53.87 54.55 54.58 54.24 53.68 52.97 52.27 54.00 55.12 55.92 57.38 58.25 59.70 58.92 59.30 52.45 49.85 50.31 53.66 53.07 53.21 53.74 53.86 53.48 53.62 53.89 54.17 54.26 53.83 54.11 55.98 56.56 57.79 59.08 60.20 60.58 57.97 55.62 54.38 52.04 51.94 50.10
52.09 52.23 53.16 53.15 52.32 52.02 51.70 50.49 50.05 51.28 53.41 54.70 55.67 55.76 55.07 55.68 50.56 49.78 51.00 54.86 54.16 53.41 53.98 54.10 54.08 53.87 51.41 48.64 53.54 52.75 52.27 53.82 55.22 52.42 52.45 51.91 51.56 51.80 55.57 56.60 51.71 51.69 49.08
50.98 52.17 52.01 50.77 50.75 50.00 49.71 49.63 49.05 48.17 49.65 51.74 52.36 53.17 53.05 54.52 50.55 47.55 49.34 56.39 55.30 54.71 53.08 53.60 51.15 53.96 48.97 47.53 51.71 51.53 50.85 52.91 56.42 58.45 57.45 53.52 50.31 52.81 52.69 57.68 55.05 52.79 51.09
49.14 49.24 48.95 47.84 47.53 47.80 46.77 46.55 47.22 46.43 47.07 46.13 48.00 48.79 50.10 51.16 52.19 48.07 46.59 53.89 55.99 55.09 54.73 52.60 54.42 47.93 46.95 46.31 46.29 51.27 51.76 52.76 53.64 56.40 57.79 55.27 55.70 57.54 58.12 58.78 57.94 56.51 52.79
46.63 46.60 45.96 45.52 46.57 48.04 45.95 44.91 45.62 45.03 43.90 44.16 43.92 45.16 47.73 48.77 48.32 48.02 46.54 45.82 51.23 55.41 54.18 53.77 53.15 47.37 46.27 45.78 45.22 45.40 43.96 44.41 52.57 57.11 56.14 56.16 57.00 57.47 58.36 58.99 58.77 58.57 56.73
43.80 43.12 42.97 43.88 44.83 45.75 44.70 44.14 43.94 43.97 43.41 44.53 45.09 45.21 45.34 46.66 47.30 46.64 46.17 45.92 45.56 51.24 55.62 52.63 48.41 45.94 45.45 46.47 44.99 44.07 42.63 48.61 54.99 57.75 56.86 56.92 57.33 59.00 59.49 59.66 58.92 57.06 55.31
40.64 40.88 41.72 42.10 42.69 43.49 44.52 44.95 44.27 43.75 43.72 44.15 44.45 44.72 45.21 45.25 45.47 47.15 49.72 49.64 46.79 49.00 50.06 51.97 49.48 48.41 47.45 49.17 47.09 45.80 50.22 52.44 54.62 57.34 58.61 58.07 57.53 58.01 58.57 59.03 55.30 54.42 53.03
40.35 40.83 40.86 41.30 41.50 41.92 42.93 43.75 44.02 44.52 44.18 43.31 43.52 43.97 43.88 44.45 45.79 45.25 46.61 49.68 51.16 50.65 50.31 48.31 47.32 46.62 47.76 46.93 48.21 50.12 51.82 53.29 55.42 58.00 57.87 57.65 57.65 57.79 57.81 57.81 55.64 53.60 52.26
40.50 40.82 41.33 41.63 42.14 42.55 42.45 42.72 41.91 41.34 41.31 40.42 40.39 42.85 45.25 42.77 40.31 41.11 41.69 42.52 41.44 40.75 45.91 49.42 49.09 49.11 49.22 49.68 49.75 50.99 52.20 53.13 55.08 57.08 58.15 57.53 56.32 56.46 55.64 55.32 53.91 53.44 50.33
39.91 40.46 40.47 40.77 41.32 41.19 41.41 41.04 40.47 42.13 40.42 39.83 39.52 39.65 39.70 41.11 40.48 39.84 39.46 38.80 39.27 40.12 45.92 47.29 50.19 50.43 49.51 49.37 49.75 50.72 50.92 53.14 54.33 55.57 56.11 56.44 55.90 55.14 51.59 52.81 52.80 51.34 49.94
40.94 40.71 40.82 40.61 40.87 40.94 40.95 40.85 41.13 40.58 40.14 41.01 40.37 39.64 39.59 38.99 39.14 38.74 38.85 38.67 40.88 41.19 46.23 46.46 46.86 50.25 51.41 50.44 51.34 51.97 52.32 52.11 54.04 54.57 54.69 55.88 54.69 53.49 52.58 52.04 51.63 50.70 48.86
39.37 39.65 40.24 39.98 39.95 40.09 40.72 41.24 41.24 41.31 41.13 41.20 41.90 40.95 39.88 38.63 38.39 38.15 37.97 39.91 40.80 41.80 43.37 44.39 45.20 47.14 50.85 52.92 52.78 53.30 53.20 53.48 54.08 54.74 54.99 54.88 53.51 51.77 52.03 51.63 50.56 45.43 45.32
37.16 37.49 37.42 37.59 37.29 38.06 38.91 39.18 39.63 39.98 40.54 41.27 41.31 41.51 42.81 39.90 41.26 40.22 40.53 40.07 40.90 41.93 43.24 44.18 45.15 47.13 49.51 51.96 53.19 53.46 53.35 52.44 53.85 54.64 54.48 54.32 52.78 52.31 51.27 50.07 48.94 46.73 47.54
35.47 35.63 34.37 35.80 35.96 36.39 37.26 37.44 38.57 39.73 40.26 40.66 41.51 42.40 38.84 42.34 42.85 43.31 43.46 43.08 42.40 42.74 43.20 43.68 44.88 47.20 48.93 51.13 52.67 53.41 53.77 53.95 54.18 54.38 54.20 53.08 52.20 51.49 51.20 49.76 48.78 48.42 47.99
34.91 35.04 35.42 35.24 36.28 36.60 37.08 38.28 38.72 39.19 39.62 39.93 40.91 42.24 36.38 41.62 43.42 44.12 44.82 45.73 45.01 44.66 45.29 45.78 46.02 47.33 49.08 50.73 52.07 51.88 53.27 53.77 54.08 53.97 53.05 52.35 51.46 51.61 50.10 48.31 47.24 47.14 45.92
33.98 34.26 35.33 36.38 37.49 37.19 38.05 38.93 39.37 39.73 39.99 40.84 41.34 41.92 43.83 42.63 43.63 44.35 45.23 46.50 47.68 46.43 46.45 46.59 47.18 47.51 49.14 51.00 52.04 52.45 53.32 53.86 54.26 54.17 52.34 51.38 50.68 49.88 48.83 47.54 46.59 46.36 45.34
36.35 37.93 38.75 39.16 38.42 38.42 38.77 39.29 40.20 39.77 41.39 41.86 42.50 43.02 43.54 45.46 45.35 45.32 46.04 47.14 48.39 48.97 48.28 47.46 47.37 47.91 48.70 50.60 52.37 53.48 54.94 55.23 55.22 53.62 52.46 50.62 49.79 46.54 48.18 47.66 46.70 46.17 45.64
35.53 36.78 39.08 40.67 44.92 40.52 40.09 40.75 42.41 43.36 44.00 43.03 43.61 44.85 45.28 45.98 46.73 47.61 47.70 48.24 48.95 50.12 49.13 48.80 49.02 48.06 48.67 50.46 51.90 53.25 49.84 42.07 52.69 48.26 52.29 50.21 48.72 48.38 48.03 47.38 46.73 45.90 45.22
35.69 36.73 38.88 40.75 43.70 45.81 45.35 45.14 45.57 46.28 46.46 46.71 47.41 47.14 47.05 48.06 48.71 48.79 48.86 49.47 50.14 50.33 50.24 50.25 50.35 50.09 50.12 52.05 52.63 48.59 40.15 40.66 43.83 43.14 50.73 49.57 48.18 48.31 47.55 46.54 46.23 45.33 44.26
MSLP
1005.39 1005.76 1006.36 1006.98 1007.58 1008.07 1008.43 1008.67 1009.17 1009.60 1009.82 1010.06 1010.44 1010.80 1011.22 1011.69 1012.22 1012.76 1013.15 1013.36 1013.78 1014.04 1014.27 1014.43 1014.57 1014.61 1014.71 1014.67 1014.67 1014.94 1015.36 1015.59 1015.83 1015.93 1015.84 1016.32 1016.97 1017.34 1018.16 1018.63 1019.15 1019.87 1020.70
1006.80 1006.46 1006.10 1006.36 1006.58 1007.69 1008.31 1008.61 1008.97 1009.29 1009.73 1009.84 1010.35 1010.76 1011.16 1011.64 1012.19 1012.57 1012.89 1013.08 1013.59 1013.89 1014.01 1014.25 1014.33 1014.36 1014.42 1014.37 1014.47 1014.64 1014.75 1014.94 1015.29 1015.58 1015.85 1016.42 1016.89 1017.43 1018.10 1018.79 1019.57 1019.96 1020.72
1007.09 1007.15 1007.38 1007.21 1007.05 1006.96 1007.23 1007.84 1008.30 1008.92 1009.45 1009.80 1010.21 1010.69 1011.07 1011.38 1011.82 1012.11 1012.34 1012.80 1013.18 1013.47 1013.67 1013.92 1014.00 1014.18 1014.34 1014.27 1014.19 1014.38 1014.29 1014.45 1014.80 1015.10 1015.38 1015.89 1016.83 1017.67 1018.40 1019.20 1019.77 1020.22 1020.70
1008.22 1008.10 1008.19 1007.72 1007.36 1007.38 1007.28 1007.36 1007.64 1007.90 1008.50 1009.04 1009.42 1009.82 1010.27 1010.69 1011.11 1011.44 1011.87 1012.36 1012.71 1013.00 1013.25 1013.40 1013.57 1013.87 1014.11 1014.14 1014.16 1014.25 1014.25 1014.26 1014.36 1014.84 1014.99 1015.44 1016.34 1017.73 1018.39 1018.97 1020.01 1020.62 1020.96
1009.56 1008.72 1008.55 1008.19 1008.13 1007.58 1007.13 1007.27 1007.41 1007.81 1007.97 1008.36 1008.81 1009.20 1009.67 1010.16 1010.51 1010.87 1011.30 1011.75 1012.24 1012.70 1012.86 1013.00 1013.11 1013.21 1013.51 1013.64 1013.89 1014.05 1014.20 1014.25 1014.30 1014.52 1014.85 1015.27 1016.01 1017.07 1017.51 1018.60 1019.54 1020.27 1020.82
1009.62 1009.91 1009.35 1008.37 1007.90 1009.07 1007.95 1007.71 1007.50 1007.73 1008.20 1008.74 1009.08 1009.29 1009.57 1009.92 1010.33 1010.57 1010.94 1011.35 1011.64 1012.13 1012.56 1012.60 1012.66 1012.71 1012.90 1013.04 1013.23 1013.57 1013.79 1014.11 1014.12 1014.09 1014.16 1014.66 1015.12 1015.84 1016.92 1017.70 1018.84 1020.01 1020.69
1009.12 1009.88 1009.19 1008.97 1009.39 1009.73 1008.56 1007.93 1007.71 1008.05 1008.44 1008.65 1009.06 1009.51 1009.99 1010.06 1010.20 1010.16 1010.51 1010.83 1011.08 1011.43 1011.86 1012.21 1012.40 1012.35 1012.43 1012.57 1012.79 1013.14 1013.30 1013.24 1013.33 1013.35 1013.30 1013.42 1014.10 1014.58 1015.68 1016.85 1017.59 1018.04 1018.78
1008.97 1008.97 1008.75 1008.67 1008.71 1009.36 1008.43 1008.80 1008.01 1008.09 1008.36 1008.71 1008.86 1008.83 1009.59 1009.56 1009.53 1009.61 1009.88 1010.44 1010.57 1010.65 1010.98 1011.39 1011.78 1011.86 1011.95 1012.15 1012.51 1012.84 1012.93 1012.80 1012.57 1012.69 1012.56 1012.16 1012.39 1013.37 1013.95 1014.74 1016.26 1017.74 1018.72
1008.84 1008.62 1007.95 1007.73 1007.94 1007.99 1007.81 1008.54 1008.40 1008.92 1008.85 1008.64 1008.52 1008.89 1008.95 1009.07 1009.01 1009.18 1009.30 1009.65 1009.97 1010.14 1010.26 1010.50 1010.93 1011.28 1011.32 1011.60 1012.20 1012.51 1012.57 1012.36 1011.93 1011.96 1011.94 1011.87 1011.79 1012.36 1013.38 1014.83 1016.15 1016.97 1018.20
1008.47 1008.48 1008.42 1007.63 1007.63 1007.84 1007.80 1008.05 1008.40 1009.13 1009.08 1008.75 1008.63 1008.66 1008.77 1008.69 1008.71 1008.72 1008.65 1008.77 1009.14 1009.42 1009.56 1009.77 1010.10 1010.41 1010.61 1010.95 1011.65 1012.03 1012.27 1011.89 1011.96 1011.86 1011.88 1011.96 1012.30 1012.55 1012.80 1012.99 1014.36 1015.41 1016.49
1008.37 1008.47 1007.96 1007.89 1007.97 1007.94 1008.15 1008.12 1008.10 1008.38 1008.26 1008.41 1008.82 1008.72 1008.56 1008.53 1008.29 1008.07 1008.22 1008.53 1008.47 1008.75 1008.88 1009.11 1009.27 1009.49 1009.88 1010.11 1010.60 1011.19 1011.35 1011.20 1011.35 1011.44 1011.44 1011.64 1012.06 1012.53 1012.82 1012.92 1013.33 1013.81 1014.80
1008.10 1007.94 1007.97 1007.92 1007.67 1007.56 1007.76 1007.70 1007.63 1007.82 1007.83 1007.91 1007.93 1007.90 1007.61 1007.75 1007.59 1007.73 1007.61 1007.77 1007.94 1007.91 1007.83 1007.96 1008.12 1008.46 1008.82 1009.17 1009.81 1010.02 1010.39 1010.95 1011.08 1011.22 1011.28 1011.26 1011.45 1011.91 1012.21 1012.52 1012.80 1013.10 1013.56
1007.89 1007.73 1007.52 1007.61 1007.76 1007.67 1007.49 1007.40 1007.48 1007.22 1007.37 1007.12 1007.20 1007.24 1006.91 1006.81 1006.78 1006.75 1006.93 1006.88 1007.01 1007.28 1006.97 1006.81 1007.05 1007.38 1007.80 1008.26 1008.69 1009.09 1009.97 1010.53 1010.36 1010.64 1010.62 1010.59 1010.63 1010.67 1011.60 1012.13 1012.52 1013.16 1013.82
1007.64 1007.42 1007.25 1006.97 1006.59 1006.42 1006.35 1006.34 1006.39 1006.21 1006.27 1006.50 1006.24 1006.30 1006.28 1006.00 1005.94 1006.29 1006.40 1006.15 1006.20 1006.14 1006.30 1006.22 1006.33 1006.62 1007.02 1007.42 1008.12 1008.77 1009.09 1009.18 1009.38 1009.58 1009.66 1009.74 1010.14 1010.68 1010.98 1011.47 1012.29 1013.13 1013.90
1006.87 1006.58 1006.34 1006.08 1005.94 1005.70 1005.45 1005.24 1005.11 1004.97 1005.31 1005.05 1004.80 1005.27 1005.08 1004.78 1004.83 1004.89 1005.44 1005.69 1005.43 1005.13 1005.57 1005.75 1006.06 1006.48 1006.77 1007.27 1007.62 1007.88 1008.18 1008.31 1008.60 1008.71 1008.86 1009.06 1009.51 1009.92 1010.43 1010.96 1011.68 1012.60 1013.19
1005.66 1005.34 1005.05 1004.83 1004.50 1004.24 1004.05 1003.78 1003.60 1003.47 1003.39 1003.30 1003.66 1004.09 1004.00 1003.90 1004.21 1004.60 1004.76 1004.76 1004.88 1004.95 1005.24 1004.84 1004.98 1005.27 1005.66 1006.15 1006.44 1006.77 1007.20 1007.35 1007.41 1007.84 1008.07 1008.21 1008.83 1009.34 1009.97 1010.59 1011.19 1011.84 1012.84
1004.70 1004.33 1004.08 1003.93 1003.61 1003.36 1003.14 1002.93 1002.54 1002.35 1002.40 1002.53 1002.77 1003.10 1003.28 1003.50 1003.92 1004.06 1004.21 1004.35 1004.44 1004.69 1004.66 1004.21 1004.00 1004.17 1004.49 1004.70 1004.96 1005.57 1005.90 1006.04 1006.23 1006.76 1007.37 1007.61 1008.13 1008.76 1009.47 1010.14 1010.81 1011.72 1012.42
1003.42 1003.11 1002.89 1002.63 1002.47 1002.25 1002.04 1001.85 1001.72 1001.56 1001.53 1001.47 1001.48 1001.65 1001.80 1002.07 1002.28 1002.67 1003.23 1003.77 1003.81 1003.84 1003.65 1003.39 1003.21 1003.52 1003.24 1003.31 1003.91 1004.46 1004.86 1005.20 1005.45 1005.99 1006.47 1006.97 1007.42 1008.04 1008.95 1009.61 1010.20 1011.03 1011.65
1002.52 1002.07 1001.69 1001.40 1001.24 1001.10 1000.94 1000.62 1000.39 1000.22 1000.10 1000.01 1000.10 1000.11 1000.20 1000.57 1001.04 1001.36 1001.82 1002.14 1002.08 1002.16 1002.48 1002.68 1002.97 1002.99 1002.63 1002.68 1002.92 1003.40 1003.91 1004.33 1004.63 1005.09 1005.61 1006.17 1006.72 1007.46 1008.30 1008.86 1009.57 1010.41 1011.36
1001.46 1001.01 1000.81 1000.56 1000.27 1000.05 999.75 999.47 999.27 999.09 998.92 998.70 998.58 998.43 999.00 999.59 999.65 999.79 1000.08 1000.33 1000.48 1000.53 1000.83 1001.19 1001.73 1002.08 1002.07 1002.09 1002.27 1002.40 1003.03 1003.66 1004.02 1004.35 1004.87 1005.48 1006.19 1006.81 1007.68 1008.46 1009.42 1010.20 1010.77
1000.18 999.76 999.55 999.31 998.88 998.63 998.34 998.05 997.92 997.82 997.49 997.28 997.01 996.96 997.28 997.77 997.77 997.90 998.15 998.35 998.63 998.94 999.27 999.65 1000.08 1000.53 1000.97 1001.28 1001.49 1001.60 1002.22 1002.75 1003.17 1003.61 1004.12 1004.82 1005.66 1006.34 1007.23 1008.04 1009.02 1009.59 1010.38
999.06 998.46 998.04 997.60 997.31 997.07 996.80 996.68 996.53 996.39 996.22 996.01 995.74 995.81 995.97 996.38 996.35 996.38 996.38 996.38 996.59 997.03 997.52 998.04 998.49 998.91 999.22 999.66 1000.20 1000.57 1001.31 1001.84 1002.27 1002.75 1003.48 1004.27 1005.12 1005.93 1006.77 1007.76 1008.66 1009.43 1010.16
997.91 997.21 996.57 996.10 995.71 995.44 995.31 995.10 994.98 994.87 994.71 994.59 994.54 994.49 994.41 994.56 994.68 994.78 994.85 994.99 995.13 995.54 996.08 996.55 996.99 997.45 997.89 998.24 998.86 999.47 1000.31 1000.77 1001.33 1002.05 1002.73 1003.66 1004.55 1005.47 1006.35 1007.23 1008.20 1009.10 1009.93
996.77 995.81 995.02 994.41 993.99 993.77 993.61 993.53 993.55 993.42 993.32 993.14 993.11 992.99 992.96 992.85 992.99 993.23 993.51 993.78 993.95 994.12 994.64 995.28 995.77 996.30 997.01 997.43 997.94 998.69 999.30 999.71 1000.59 1001.33 1002.03 1003.00 1004.04 1005.21 1006.02 1006.98 1007.78 1008.63 1009.40
996.41 995.38 994.22 993.10 991.55 991.96 992.44 992.48 992.33 992.11 991.87 991.80 991.75 991.51 991.44 991.57 991.63 991.75 991.93 992.23 992.50 992.83 993.37 994.03 994.63 995.32 995.96 996.49 997.18 997.83 998.42 999.09 1000.01 1000.64 1001.67 1002.57 1003.54 1004.66 1005.53 1006.53 1007.39 1008.44 1009.33
996.51 995.38 994.32 993.14 992.24 991.88 991.66 991.33 991.27 990.98 990.69 990.41 990.11 990.16 990.15 990.02 989.81 990.14 990.38 990.81 991.13 991.50 992.15 992.82 993.47 994.17 994.97 995.68 996.39 997.13 997.82 998.64 999.44 1000.25 1001.32 1002.31 1003.46 1004.44 1005.30 1006.08 1007.17 1008.04 1009.06
Wind_Speed
7 7 8 7 6 5 6 6 6 4 7 9 12 10 8 8 7 6 5 5 4 3 2 2 4 4 4 4 2 2 3 3 4 1 1 5 4 10 8 8 11 8 8
6 4 8 9 10 9 7 7 8 7 5 6 6 6 6 7 7 7 7 5 5 4 4 2 4 2 4 4 3 4 3 4 4 5 2 2 3 8 9 11 8 6 6
8 5 6 6 1 8 10 11 10 10 9 8 8 8 8 8 7 7 6 6 6 5 5 4 4 2 4 3 2 4 3 3 3 3 4 3 3 7 8 7 7 7 6
5 6 5 6 3 6 5 5 9 11 12 11 11 10 9 8 8 7 7 7 6 5 5 5 4 4 4 3 3 4 4 3 3 2 2 3 3 6 6 9 7 4 5
10 7 6 5 7 4 5 6 5 5 8 10 10 9 9 8 6 8 7 7 7 6 6 6 6 6 8 5 1 5 4 2 2 3 2 2 4 6 10 7 6 7 5
6 5 8 5 7 8 6 1 3 4 2 1 2 5 6 4 9 11 9 7 7 7 7 7 7 7 7 5 4 6 6 4 4 4 4 5 6 6 8 10 10 8 5
1 3 4 6 7 9 6 4 3 1 4 4 4 3 5 5 9 12 13 6 6 7 7 6 6 5 7 5 4 4 6 8 11 5 6 8 9 11 12 13 13 11 4
8 6 5 3 3 11 6 8 4 2 4 5 7 8 11 9 15 15 13 7 6 7 8 8 8 8 8 6 5 5 6 7 5 6 7 9 11 13 17 13 12 8 7
7 9 10 10 8 6 5 4 3 3 3 4 4 7 7 8 13 17 13 7 7 9 8 8 8 8 10 10 6 6 7 7 6 10 8 9 11 17 15 10 10 11 5
9 11 10 5 3 2 2 3 3 4 4 2 3 4 7 7 8 12 11 7 9 7 6 7 13 12 12 12 7 6 6 8 4 4 4 3 5 12 20 16 14 13 6
5 5 4 4 4 4 4 3 4 4 3 3 5 5 6 6 7 10 11 8 9 7 8 5 7 15 15 14 12 7 8 5 6 6 5 3 6 9 11 10 13 13 10
5 5 5 5 5 4 6 5 5 5 6 6 6 6 6 7 10 10 12 13 12 10 9 8 8 16 17 17 10 13 11 2 4 5 5 5 6 8 10 11 12 10 9
6 7 6 6 7 7 7 7 5 5 5 7 7 8 8 5 5 10 14 16 16 12 9 9 14 17 19 15 15 13 9 5 4 5 8 7 8 9 10 9 9 7 6
9 11 12 12 12 10 9 9 9 9 9 9 9 10 9 8 6 4 6 6 13 11 9 9 9 11 12 10 5 6 5 5 6 6 8 7 5 6 9 8 7 9 8
12 11 11 9 10 11 10 10 10 10 11 9 9 9 10 10 9 11 10 8 8 9 9 4 4 4 5 5 4 5 5 5 7 7 8 7 7 8 8 8 8 9 8
13 11 10 9 10 10 11 11 15 18 14 15 16 15 10 9 2 6 10 9 5 3 3 8 8 9 10 11 10 9 9 11 8 7 8 8 9 9 8 7 8 11 11
14 13 11 12 10 10 10 11 11 11 16 19 21 21 21 21 18 16 16 13 11 5 6 6 5 9 11 10 9 9 10 10 9 9 10 9 9 9 10 9 10 10 9
14 19 11 10 10 10 11 11 11 11 11 11 16 20 22 25 24 22 21 14 12 9 10 5 3 5 8 9 9 9 8 7 8 9 12 10 10 10 10 11 12 13 12
11 10 11 11 11 13 11 11 12 12 11 11 10 12 16 21 21 21 21 13 13 13 11 10 9 8 6 7 8 8 8 8 9 9 10 10 10 11 11 11 11 14 15
12 20 18 12 11 11 11 12 12 12 13 12 11 12 9 7 10 11 11 11 12 12 13 13 12 10 10 7 8 8 7 7 9 9 9 9 10 11 11 12 11 13 13
10 10 13 11 11 11 11 12 11 11 11 11 12 12 12 10 10 11 11 12 12 12 12 12 13 13 12 10 8 8 9 9 10 10 10 10 11 11 11 11 11 12 11
9 10 10 11 10 11 11 11 11 11 12 12 12 11 12 11 12 12 11 11 12 12 12 13 13 14 13 13 11 9 10 10 10 11 11 11 11 11 11 11 11 12 12
9 10 10 10 11 13 11 12 11 11 12 12 12 11 10 11 12 12 12 11 11 12 11 12 13 13 13 13 11 11 12 11 11 11 12 12 11 11 12 13 14 13 13
8 9 9 10 10 11 11 10 10 12 12 12 11 10 11 10 11 13 12 11 11 11 12 12 12 15 13 12 11 12 11 11 11 13 17 14 13 13 12 12 13 15 14
9 9 8 9 8 8 9 9 9 10 10 11 11 10 10 11 10 10 11 11 11 11 13 13 12 16 19 19 16 17 14 13 15 14 12 15 16 18 15 13 14 13 14
10 11 9 10 10 5 2 5 7 7 8 8 9 10 10 10 9 9 10 10 10 11 13 11 14 18 21 18 20 17 14 14 12 16 14 14 15 13 12 14 19 13 15
Wind_Direction
165 160 156 161 168 170 166 179 179 184 187 172 174 166 165 164 162 164 186 175 200 242 231 236 271 264 276 276 247 199 195 182 203 249 115 121 136 150 142 136 143 144 152
347 293 182 180 166 165 178 184 182 179 186 158 152 154 155 161 173 180 185 178 198 226 260 258 273 302 291 280 257 253 221 196 174 192 137 120 110 156 146 147 139 144 154
17 19 358 354 268 183 178 171 169 161 173 170 165 172 178 181 177 189 186 192 203 219 240 244 262 283 296 297 287 269 247 183 193 170 166 129 106 138 140 129 145 130 164
31 25 18 5 256 215 238 204 181 183 176 178 180 181 180 182 182 184 184 199 212 222 230 234 243 223 253 293 328 309 295 271 167 179 182 130 117 139 150 149 141 142 159
343 9 351 358 350 357 200 221 205 193 190 189 184 184 182 180 187 191 192 197 199 224 237 239 245 228 208 214 170 306 305 268 203 171 178 120 133 151 176 164 149 145 153
331 354 314 1 19 330 7 51 196 197 170 351 287 206 184 184 197 190 183 195 203 205 230 246 249 248 259 257 207 230 238 253 228 185 175 189 187 169 164 162 150 154 176
130 294 304 353 334 304 312 352 37 199 216 211 217 234 259 247 234 207 211 207 202 207 217 228 244 238 245 252 281 280 287 258 227 211 186 198 182 184 162 169 176 176 155
215 228 248 259 257 284 336 314 285 223 238 233 225 212 215 220 211 213 219 212 211 216 207 211 214 232 239 233 249 274 269 270 255 226 218 206 197 173 178 179 169 144 98
273 252 235 219 223 224 172 207 356 340 303 231 195 234 219 240 219 222 217 208 215 225 214 210 205 221 233 215 229 257 276 268 261 239 247 263 183 167 162 141 158 155 143
265 278 302 328 319 256 174 161 163 202 227 287 314 286 268 254 261 234 221 230 231 224 219 211 209 217 213 216 210 225 258 261 238 257 232 235 174 170 171 174 162 173 146
237 257 290 308 280 258 253 216 197 217 212 235 244 243 248 255 263 256 244 237 227 218 224 205 215 212 221 222 204 200 220 233 236 225 227 172 157 176 185 185 179 174 168
272 254 250 267 274 264 240 244 248 245 250 246 253 256 236 229 219 240 243 225 234 232 217 210 203 206 212 221 199 214 225 231 236 224 199 182 178 182 192 190 184 186 190
281 279 272 252 250 247 246 235 230 217 227 258 257 262 257 235 246 233 236 237 230 234 240 211 196 203 210 219 213 213 167 203 187 209 220 196 195 182 185 183 178 156 129
267 269 268 262 262 256 245 243 233 227 233 235 239 249 256 247 226 222 243 246 243 237 226 215 206 201 198 195 198 200 205 195 191 216 220 205 171 182 178 175 158 160 151
260 257 251 249 253 255 246 242 241 235 225 232 236 240 245 246 235 213 219 242 246 240 222 203 185 183 199 195 197 193 199 200 214 219 204 182 188 183 186 175 164 161 167
265 264 261 260 256 252 252 253 236 240 237 233 237 239 248 254 302 244 212 194 214 230 227 217 215 213 220 215 213 215 209 206 199 202 208 186 179 185 174 174 167 174 163
256 258 260 256 254 250 246 247 255 248 236 234 238 239 240 247 246 243 240 236 242 255 240 226 211 213 209 199 192 196 204 203 191 198 214 188 183 178 167 170 169 163 155
258 255 253 252 249 246 242 242 242 243 242 244 233 232 237 239 240 237 235 243 252 231 239 219 222 241 199 182 184 191 197 190 195 202 211 192 180 170 177 178 170 167 155
269 265 255 247 247 249 251 249 242 240 240 247 249 234 227 230 226 227 222 228 232 232 223 225 232 243 238 200 184 184 189 197 195 199 200 192 177 171 179 175 169 160 151
265 258 249 251 251 250 246 242 239 243 244 239 239 241 236 210 219 221 220 220 222 225 220 216 214 218 223 208 192 181 182 197 196 197 190 183 176 174 174 167 164 159 158
265 259 246 247 243 241 241 240 240 242 243 243 245 242 225 221 227 222 216 212 211 214 214 216 211 208 210 207 196 185 193 197 196 190 182 174 171 171 171 166 164 158 146
269 259 250 244 240 236 237 238 236 235 237 239 243 241 209 215 223 225 222 218 210 209 206 205 207 207 200 199 195 184 197 199 192 183 175 170 170 169 163 159 157 153 146
269 262 254 248 242 239 237 235 233 231 235 236 236 236 225 215 221 224 225 223 215 205 204 202 202 203 203 198 194 188 195 192 187 179 174 171 170 162 162 160 159 156 153
291 292 275 254 238 231 232 233 233 233 234 235 235 234 233 228 218 220 219 217 218 202 196 195 196 191 198 192 189 189 193 186 180 181 170 167 164 158 158 157 161 161 155
321 314 308 301 276 202 227 231 232 235 231 227 234 233 234 229 227 216 213 209 207 200 192 190 194 195 192 190 189 191 184 167 177 168 169 162 157 162 160 156 155 154 153
344 344 348 353 9 14 280 239 240 237 237 237 234 229 232 232 224 210 211 205 198 194 187 186 189 190 190 191 191 186 163 162 161 162 159 156 158 159 157 156 157 156 158